CENTAURI-4 (TYVAK-0211) (48898 NORAD) Tracking and Keplerian Element Data

This shows tracking and keplerian element data for the satellite.

Feedback or suggestion? Click here.




ElementValue
Catalog48898
NameCENTAURI-4 (TYVAK-0211)
Epoch Orbit1278
Epoch Day261.38985211
Epoch Year2021
RAAN28.9632
Inclination97.5246
Eccentricity0.0009864
Argument of Perigee332.5124
Mean Anonmoly27.5583
Mean Motion15.12377024
Decay Rate1.752E-05
L11 48898U 21059V 21261.38985211 .00001752 00000-0 10465-3 0 9997
L22 48898 97.5246 28.9632 0009864 332.5124 27.5583 15.12377024 12789

Live tracking and technical data element details for CENTAURI-4 (TYVAK-0211) (NORAD 48898). CENTAURI-4 (TYVAK-0211) can be tracked NOW for your location showing map with azimuth and elevation plus other details from your city location.

Track the satellite on the map from your city or location and see movement details for azimuth, elevation, latitude, longitude, range, height, and movement on the map or in text.







IsCatalogInMostPopularTable: catalog: 48898, numindb: 13
Update: records affected: 1



GetName: 48898 CENTAURI-4 (TYVAK-0211)

Hit Count: updated at: Fri, 24 Sep 2021 17:41:12 GMT